{"data":{"norad_id":48696,"intl_designator":"2021-044BL","name":"STARLINK-2753","alt_names":[],"object_type":"PAYLOAD","status":"ACTIVE","operator":null,"country":"US","launch_date":"2021-05-26","launch_site_code":"AFETR","launch_vehicle":null,"mission":null,"orbit_class":"UNKNOWN","rcs_meters":null,"size_class":null,"mass_kg":null,"dimensions":null,"purposes":["comms"],"wikipedia_slug":null,"has_3d_model":false,"image_url":null,"decayed_at":null,"tle_current":{"epoch":"2026-09-19T15:38:56.497056Z","epoch_age_seconds":114566,"freshness":"FRESH","line1":"1 48696U 21044BL  26262.65204279  .00028818  00000+0  86363-3 0  9992","line2":"2 48696  53.1564 265.5540 0004367  52.5804 307.5595 15.34289640293909","mean_motion":15.3428964,"eccentricity":0.0004367,"inclination_deg":53.1564,"raan_deg":265.554,"arg_perigee_deg":52.5804,"mean_anomaly_deg":307.5595,"bstar":0.00086363,"rev_number":29390,"period_min":93.854508461649,"perigee_km":460.04373486082,"apogee_km":466.0188112305,"semimajor_km":6841.1682730457,"source":"CELESTRAK","updated_at":"2026-09-20T09:00:39.246129Z"}}}